TIME,DELAY(SENSOR),PRES,T(CTD),SAL,OXYGEN,RAWTEMP,T(OPTODE),TCPHASE,FLUOR,BETA(BETA700),BETA(BETA412),BETA(BETA440),CDOM,C(CSC),ED(ED411.90),ED(ED443.80),ED(ED489.40),ED(ED554.70),LU(LU412.20),LU(LU443.80),LU(LU489.40),LU(LU555.00),COMP,TILTX,TILTX(TILTY),CHECK
1373211361,5804,496.7900085449219000,17.5814990997314450,36.4686012268066400,218.7295074462890600,169.1956939697265600,17.5772800445556640,31.7427501678466800,50,98,85,79,67,10147,2146959113,2147514486,2147269238,2147454902,2147080475,2146953042,2147651693,2147129737,2003,-1,8,34759
1373211471,5804,486.1600036621094000,17.7073001861572270,36.4911003112793000,220.3890991210937500,165.1342926025390600,17.6998500823974600,31.6001205444335940,50,98,84,79,66,10152,2146958784,2147519104,2147270208,2147454436,2147079469,2146951789,2147652315,2147130221,1393,-1,8,15169
1373211583,5806,475.5299987792969000,17.7749004364013670,36.5043983459472660,222.0612945556640600,162.6172943115234400,17.7758197784423830,31.4788398742675780,51,98,85,78,66,10151,2146958610,2147514066,2147267520,2147455405,2147078198,2146952155,2147652196,2147127460,436,-1,8,62605
1373211704,5803,464.3599853515625000,17.8463001251220700,36.5161018371582000,222.9459991455078000,160.3684997558593800,17.8437099456787100,31.4027500152587900,51,98,85,80,66,10150,2146956973,2147516928,2147268205,2147455771,2147083264,2146948736,2147650029,2147128493,3074,-1,8,22691
1373211825,5802,453.4200134277344000,17.9227008819580080,36.5276985168457000,223.9400939941406200,157.9340972900390600,17.9172096252441400,31.3188896179199220,50,97,86,79,66,10149,2146956690,2147517705,2147271780,2147454290,2147081901,2146950884,2147651803,2147129664,1937,-1,8,58626
1373211948,5806,442.7300109863281000,17.9937992095947270,36.5373992919921900,224.3627014160156200,155.4750061035156200,17.9914703369140620,31.2641105651855470,51,104,86,78,66,10149,2146956269,2147517933,2147269814,2147454454,2147074916,2146948388,2147647222,2147129234,762,-1,8,12075
1373212080,5806,431.6600036621094000,18.0214004516601560,36.5353012084960940,225.7976989746093800,154.6226043701172000,18.0172100067138670,31.1798801422119140,51,98,85,77,66,10148,2146956233,2147514340,2147271680,2147452406,2147071853,2146952795,2147647515,2147127113,3127,-1,8,30448
1373212214,5806,420.6900024414062500,18.0732994079589840,36.5388984680175800,228.7483062744140600,152.8125000000000000,18.0718803405761720,31.0073699951171880,50,98,85,79,66,10147,2146957577,2147514806,2147269330,2147451821,2147069284,2146955593,2147648246,2147128237,1751,-1,8,49618
1373212357,5804,409.1400146484375000,18.2000999450683600,36.5545997619628900,229.2247009277343800,148.8444061279297000,18.1917495727539060,30.9304103851318360,52,98,86,79,65,10149,2146958400,2147515776,2147270473,2147452224,2147078710,2146955254,2147650633,2147126802,1354,-1,8,53384
1373212491,5806,398.5899963378906000,18.2306995391845700,36.5549011230468750,230.0912933349609400,147.9958038330078000,18.2173900604248050,30.8762798309326170,51,98,86,79,66,10147,2146955474,2147512923,2147269403,2147450121,2147076306,2146951725,2147647542,2147127451,823,-1,8,37193
1373212634,5804,387.5700073242187500,18.2586002349853500,36.5559997558593750,234.9781951904297000,146.7593994140625000,18.2547492980957030,30.6215591430664060,50,96,85,79,64,10147,2146956132,2147514313,2147266889,2147445604,2147075081,2146956123,2147647177,2147126235,2997,-1,8,40127
1373212777,5802,376.3299865722656000,18.2887001037597660,36.5460014343261700,237.3032989501953000,145.8746948242187500,18.2814807891845700,30.4984893798828120,50,97,86,80,64,10144,2146958116,2147511670,2147266029,2147447680,2147077988,2146952054,2147651035,2147126793,1670,-1,8,25796
1373212907,5803,364.6000061035156000,18.3341007232666000,36.5489006042480500,236.9642028808593800,144.2252044677734400,18.3313293457031250,30.4929695129394530,51,97,86,79,65,10147,2146958162,2147517184,2147267136,2147451136,2147077257,2146956333,2147649243,2147130514,311,-1,8,47251
1373213014,5809,353.5700073242187500,18.3579006195068360,36.5437011718750000,245.1871948242187500,143.4158935546875000,18.3557891845703120,30.0988292694091800,51,98,84,79,63,10144,2146958409,2147514953,2147267364,2147449974,2147082048,2146956178,2147648585,2147127990,2680,-1,8,40136
1373213124,5806,342.5100097656250000,18.3843994140625000,36.5453987121582000,249.7384948730468800,142.6439971923828000,18.3791198730468750,29.8832397460937500,50,98,85,79,63,10144,2146958610,2147515757,2147270226,2147449801,2147079862,2146958482,2147650450,2147125952,1535,-1,8,32928
1373213236,5806,331.6400146484375000,18.4452991485595700,36.5547981262207000,250.7648010253906200,140.4062042236328000,18.4467601776123050,29.8081092834472660,50,98,85,79,63,10146,2146955081,2147514614,2147268516,2147449956,2147081938,2146957083,2147646665,2147129362,754,-1,8,14548
1373213346,5804,320.9700012207031000,18.4741001129150400,36.5578994750976560,251.4221954345703000,139.6318969726562500,18.4701690673828120,29.7689304351806640,50,99,86,80,63,10143,2146955894,2147515044,2147269824,2147447917,2147076406,2146961517,2147655414,2147130560,3289,-1,8,18179
1373213456,5802,310.2399902343750000,18.5097999572753900,36.5583992004394500,251.3863067626953000,138.4524993896484400,18.5058307647705080,29.7549095153808600,51,98,84,79,63,10137,2146957741,2147515593,2147266980,2147446180,2147075236,2146954450,2147652827,2147126500,2262,-1,8,17807
1373213568,5805,299.3800048828125000,18.5335998535156250,36.5589981079101560,252.2176971435547000,137.6430969238281200,18.5303001403808600,29.7077102661132800,50,97,85,79,63,10144,2146957312,2147514752,2147264722,2147446738,2147080128,2146960585,2147659629,2147127579,1316,-1,8,19139
1373213689,5808,287.7500000000000000,18.6173000335693360,36.5612983703613300,250.7805938720703000,135.0848999023437500,18.6076602935791000,29.7377204895019530,52,101,84,78,63,10140,2146956123,2147512365,2147265252,2147447926,2147080210,2146959213,2147664667,2147126692,127,-1,8,3878
1373213799,5805,277.1300048828125000,18.6706008911132800,36.5621986389160160,249.3981018066406200,133.2675018310547000,18.6626300811767580,29.7755393981933600,52,100,85,78,64,10138,2146956717,2147516726,2147271433,2147447808,2147081270,2146961408,2147668662,2147130706,114,-1,8,17543
1373213911,5802,266.3299865722656000,18.7730007171630860,36.5674018859863300,246.6548004150390600,129.9506988525390600,18.7629699707031250,29.8555793762207030,54,101,86,79,64,10140,2146958555,2147516013,2147264548,2147445056,2147082148,2146967277,2147672658,2147129645,2461,-1,8,61308
1373214032,5806,254.8099975585937500,18.9862003326416000,36.5695991516113300,244.6508941650390600,122.3757019042968800,18.9922294616699220,29.8473205566406250,59,103,86,80,64,10128,2146954715,2147513846,2147268745,2147449133,2147076169,2146969737,2147685604,2147131885,2031,-1,8,29543
1373214142,5804,244.5399932861328000,19.1590003967285160,36.5895004272460940,242.8515014648437500,116.5283966064453100,19.1693000793457030,29.8535194396972660,56,103,86,80,65,10131,2146956461,2147518811,2147268708,2147443876,2147085339,2146977974,2147697188,2147130669,1169,-2,9,60004
1373214265,5807,233.0399932861328000,19.2800006866455080,36.5884017944335940,242.4089050292968800,112.8175964355468800,19.2817306518554700,29.8251590728759770,67,107,86,80,64,10115,2146955392,2147515117,2147268827,2147445696,2147083702,2146985883,2147721664,2147131611,629,-1,8,46320
1373214386,5806,222.0000000000000000,19.5188999176025400,36.6007003784179700,240.6508026123047000,104.7874984741211000,19.5251502990722660,29.8019104003906250,70,108,86,82,63,10113,2146958930,2147516544,2147270546,2147443181,2147086464,2147007414,2147752886,2147135488,629,-1,8,16320
1373214509,5807,211.1100006103515600,19.6844997406005860,36.6030998229980500,243.8591003417968800,99.8080291748046900,19.6762008666992200,29.5903606414794920,65,107,85,81,65,10115,2146957650,2147516836,2147266861,2147446317,2147089755,2147029504,2147799131,2147139574,545,-1,8,30643
1373214641,5809,200.1799926757812500,19.8808002471923830,36.5877990722656250,251.9674987792968800,92.8315429687500000,19.8879604339599600,29.1398200988769530,63,106,86,81,63,10102,2146954816,2147518400,2147274925,2147443510,2147098368,2147071296,2147870985,2147144466,2612,0,8,20585
1373214696,5805,195.9799957275390600,20.4554004669189450,36.6543998718261700,250.7664031982422000,76.3486633300781200,20.3889694213867200,28.9819393157959000,61,105,86,82,64,10119,2146956900,2147518930,2147278016,2147444452,2147101138,2147093248,2147910811,2147145170,3016,-1,8,22173
1373214751,5806,192.0200042724609400,20.5004005432128900,36.6693992614746100,240.6604003906250000,73.2130508422851600,20.4843902587890620,29.3937702178955080,61,105,86,79,64,10117,2146956306,2147520018,2147272813,2147439689,2147105197,2147124150,2147953746,2147145737,3483,-1,9,56905
1373214831,5806,186.5000000000000000,20.5424995422363280,36.6767005920410160,233.9925994873047000,71.3131713867187500,20.5422191619873050,29.6800193786621100,61,105,86,80,64,10128,2146961819,2147520182,2147278025,2147440932,2147115684,2147175369,2148019017,2147153965,3540,-1,9,7947
1373214886,5807,182.7899932861328000,20.5739994049072270,36.6780014038085940,232.6320953369140600,70.5186233520507800,20.5664100646972660,29.7344608306884770,59,103,86,80,65,10128,2146957796,2147521773,2147279204,2147443739,2147122258,2147212013,2148080566,2147158317,153,-1,9,54332
1373214941,5807,179.0299987792968800,20.6273994445800780,36.6794013977050800,231.7960052490234400,68.4949188232421900,20.6280403137207030,29.7483901977539060,56,101,84,80,64,10136,2146959689,2147524123,2147281728,2147438290,2147134592,2147259556,2148145764,2147161097,65,-1,8,45573
1373214996,5804,175.2899932861328000,20.6816997528076170,36.6827011108398440,231.2610931396484400,67.0334701538086000,20.6725597381591800,29.7551002502441400,55,100,84,79,64,10135,2146957705,2147528018,2147284873,2147440813,2147145737,2147313618,2148218962,2147165696,3456,-2,8,19898
1373215062,5801,170.9700012207031200,20.7707996368408200,36.6828994750976560,231.1269989013672000,63.9815483093261700,20.7655391693115230,29.7222805023193360,56,101,85,78,64,10137,2146957293,2147523227,2147285915,2147437686,2147161133,2147377280,2148308288,2147169280,2940,-1,8,27508
1373215146,5802,166.6999969482422000,20.8470993041992200,36.6829986572265600,231.4407958984375000,61.5918998718261700,20.8383808135986330,29.6764106750488280,57,103,85,79,64,10139,2146959296,2147525824,2147292909,2147439570,2147180534,2147434761,2148391716,2147175396,3142,-1,8,1111
1373215267,5805,163.2299957275390600,20.8300991058349600,36.6296005249023440,235.3278045654297000,61.4448699951171900,20.8428592681884770,29.4902496337890620,55,98,85,80,64,10132,2146961417,2147530377,2147292598,2147439323,2147194898,2147483776,2148464886,2147179081,2674,-2,9,28229
1373215457,5807,159.0500030517578000,21.1263008117675780,36.6451988220214840,239.7364959716797000,52.5595512390136700,21.1139106750488280,29.1724395751953120,55,100,86,80,63,10133,2146962432,2147531538,2147296155,2147438116,2147220452,2147574829,2148588864,2147188077,2385,-2,8,60365
1373215567,5804,154.5899963378906200,21.3941001892089840,36.6753005981445300,233.3645935058593800,44.3386688232421900,21.3649997711181640,29.3636703491210940,57,103,85,81,63,10135,2146966409,2147537216,2147299401,2147438308,2147260836,2147695442,2148755337,2147197504,2999,-2,9,42110
1373215666,5805,151.0399932861328000,21.4216003417968750,36.6771011352539060,231.2044982910156200,42.7541885375976560,21.4134292602539060,29.4457702636718750,58,101,85,81,62,10135,2146962898,2147536960,2147304914,2147435529,2147295936,2147803236,2148899062,2147207122,2800,-1,9,4638
1373215784,5804,146.3699951171875000,21.5293006896972660,36.6726989746093750,231.1634979248047000,39.0289688110351560,21.5273303985595700,29.4002304077148440,63,105,85,79,64,10130,2146965531,2147541961,2147313298,2147437202,2147354550,2147976621,2149132269,2147219209,2855,-1,8,16749
1373215872,5802,142.7599945068359400,21.6107997894287100,36.6682014465332000,232.1961975097656200,36.5049781799316400,21.6045494079589840,29.3189105987548830,68,110,85,81,64,10120,2146970011,2147547858,2147317302,2147432941,2147406747,2148098185,2149294720,2147230939,2902,-1,8,57451
1373215971,5803,138.9400024414062500,21.6532001495361330,36.6646003723144500,233.7622070312500000,35.0393981933593750,21.6494007110595700,29.2263107299804700,70,109,86,79,62,10119,2146969517,2147551734,2147326098,2147433846,2147475264,2148254454,2149508690,2147244818,2483,-2,9,22234
1373216083,5805,134.7799987792968800,21.8227005004882800,36.6473007202148440,234.6804962158203000,30.0801200866699220,21.8012409210205080,29.1202507019042970,77,108,85,81,63,10108,2146972562,2147559789,2147336310,2147433289,2147572059,2148450450,2149778523,2147268397,1410,-1,9,10710
1373216204,5809,131.1900024414062500,21.9377002716064450,36.6412010192871100,236.5928955078125000,26.0376396179199220,21.9251003265380860,28.9803199768066400,80,116,86,82,63,10103,2146975826,2147565248,2147347035,2147432073,2147655542,2148619785,2150011812,2147280539,888,-1,8,58209
1373216378,5805,126.3399963378906200,22.1522998809814450,36.6320991516113300,237.3988037109375000,18.9666404724121100,22.1419601440429700,28.8538894653320300,83,116,86,81,62,10095,2146979803,2147572827,2147364781,2147431780,2147790646,2148858806,2150365257,2147306258,727,-2,9,21065
1373216466,5805,122.9300003051757800,22.3187999725341800,36.6301994323730500,236.0516052246093800,13.5359802246093750,22.3086891174316400,28.8474693298339840,96,118,86,81,63,10079,2146983881,2147576676,2147372644,2147431579,2147903506,2149056155,2150649490,2147328539,1078,-2,9,18451
1373216576,5806,118.8000030517578100,22.5522994995117200,36.6209983825683600,234.6620941162109400,6.1497778892517090,22.5357093811035160,28.8187408447265620,102,121,85,83,62,10074,2146989732,2147583798,2147392347,2147434386,2148082532,2149367689,2151091766,2147367826,889,-1,8,8952
1373216682,5804,114.7200012207031200,22.7658004760742200,36.6095008850097660,234.4107971191406200,-0.9725599884986877,22.7549095153808600,28.7408790588378900,112,128,88,82,62,10058,2147000182,2147601206,2147415552,2147433243,2148337883,2149791945,2151691172,2147419209,1282,-2,9,25244
1373216781,5806,110.9400024414062500,23.0055999755859380,36.5791015625000000,237.0713958740234400,-8.2319946289062500,22.9786300659179700,28.5274791717529300,127,129,87,82,64,10028,2147008996,2147612882,2147436662,2147432777,2148602541,2150227273,2152267008,2147473097,1116,-1,9,51867
1373216987,5802,106.3899993896484400,23.2590007781982420,36.5686988830566400,239.9192047119140600,-16.9241600036621100,23.2469196319580080,28.2902793884277340,140,134,89,86,62,9977,2147030701,2147640603,2147488256,2147434075,2149141659,2151077696,2153427236,2147590509,1254,-1,9,20126
1373217075,5806,102.7600021362304700,23.4395008087158200,36.5410003662109400,242.3038024902343800,-22.7479095458984380,23.4269294738769530,28.1115894317626950,137,138,89,88,62,9953,2147051364,2147676681,2147541202,2147437211,2149676498,2151945755,2154563858,2147698724,1256,-1,9,30123
1373217185,5805,99.2099990844726600,23.6478004455566400,36.5127983093261700,248.1593933105468800,-29.2121105194091800,23.6269893646240230,27.7763690948486330,137,137,93,85,64,9963,2147078720,2147719122,2147609718,2147441993,2150320054,2152979894,2155827803,2147826916,901,-2,9,31352
1373217292,5806,96.7900009155273400,23.6686992645263670,36.5125007629394500,253.2696075439453000,-30.3653297424316400,23.6627101898193360,27.5451393127441400,123,140,94,89,63,9950,2147108690,2147769078,2147684800,2147444745,2151086125,2154231232,2157271424,2147966134,556,-1,9,64216
1373217347,5808,94.5999984741211000,23.6837005615234380,36.5093994140625000,254.1464996337890600,-31.3258991241455080,23.6924705505371100,27.4966793060302730,121,142,93,88,63,9952,2147143003,2147818057,2147743771,2147449380,2151892635,2155516982,2158698057,2148106724,81,-2,8,49137
1373217402,5802,92.2300033569336000,23.7567005157470700,36.4967994689941400,257.2229919433594000,-33.1974487304687500,23.7504692077636720,27.3463306427001950,110,143,91,88,62,9954,2147182491,2147870473,2147799186,2147450706,2152876928,2157090980,2160385472,2148267904,2917,-1,9,12937
1373217457,5806,89.8700027465820300,23.8339004516601560,36.4866981506347660,262.3305053710937500,-35.4849205017089840,23.8213806152343750,27.1106891632080080,103,131,89,86,62,9972,2147232192,2147937746,2147874596,2147453760,2154113609,2159028480,2162369161,2148457682,2515,-1,9,39888
1373217512,5803,87.7300033569336000,23.9071998596191400,36.4780006408691400,272.0643005371094000,-37.5225791931152340,23.8845901489257800,26.7029495239257800,92,132,90,85,62,9979,2147279296,2148005540,2147952173,2147458294,2155323117,2160916416,2164212224,2148642980,3044,-1,9,19871
1373217596,5805,84.3199996948242200,24.2084999084472660,36.4603004455566400,270.9854125976562500,-47.5333900451660160,24.1954994201660160,26.6242408752441400,82,120,89,85,63,10011,2147383936,2148147062,2148094016,2147466249,2158056054,2165010496,2167987766,2149029888,3139,-2,9,24403
1373217651,5808,82.1100006103515600,24.4440994262695300,36.4328002929687500,274.0404052734375000,-54.7944984436035160,24.4214496612548830,26.4202308654785160,76,119,87,83,61,10017,2147451629,2148237531,2148165888,2147473216,2159862921,2167672566,2170155218,2149261540,2752,-1,9,63547
1373217706,5805,80.4100036621093800,24.6047992706298830,36.4155006408691400,295.0686950683594000,-58.3313789367675800,24.5316390991210940,25.6125907897949220,71,120,87,82,62,10021,2147520411,2148326162,2148255835,2147480329,2161482221,2169946038,2172002788,2149454262,3089,-1,9,49030
1373217761,5804,79.2699966430664000,24.6096000671386720,36.4117012023925800,311.6052856445312500,-60.4844017028808600,24.5987606048584000,25.0281791687011720,72,119,90,85,60,10029,2147560146,2148375396,2148315136,2147481526,2162583689,2171521974,2173358939,2149601545,3453,-1,9,53991
1373217900,5804,76.5999984741211000,24.6229000091552730,36.3953018188476560,315.2940979003906000,-61.0115509033203100,24.6152000427246100,24.9019794464111330,70,118,88,84,61,10031,2147706669,2148558994,2148496630,2147497956,2166304192,2176596571,2177496832,2150051410,249,-1,8,34175
1373217955,5808,74.5000000000000000,24.6625003814697270,36.3991012573242200,311.7744140625000000,-62.8248786926269500,24.6717605590820300,24.9954795837402340,69,119,89,83,63,10032,2147824146,2148696896,2148606180,2147499858,2169446509,2180781586,2180710226,2150376585,3576,-1,9,20659
1373218010,5806,72.4899978637695300,24.7495002746582030,36.3648986816406250,317.8504028320312500,-65.3456268310546900,24.7504405975341800,24.7694702148437500,70,121,88,84,62,10028,2147956013,2148846372,2148740882,2147514998,2172864347,2185231433,2184133074,2150744164,184,-1,9,3407
1373218065,5807,70.8899993896484400,24.7959003448486330,36.3429985046386700,326.3262939453125000,-67.1756820678711000,24.8075809478759770,24.4810295104980470,67,119,89,85,61,10028,2148072484,2148979574,2148849069,2147521225,2176068626,2189245915,2187151670,2151087744,36,-1,8,9829
1373218131,5807,69.3600006103515600,24.8344001770019530,36.3008003234863300,323.3595886230469000,-68.0694732666015600,24.8355007171630860,24.5634403228759770,67,118,87,83,60,10036,2148192228,2149093778,2148898276,2147519945,2179012873,2192876864,2189655771,2151341440,2685,-1,9,54138
1373218215,5805,66.8399963378906200,25.0051002502441400,36.3058013916015600,332.8548889160156000,-73.5986709594726600,25.0083408355712900,24.2068901062011720,64,117,88,83,61,10040,2148438482,2149361124,2149122203,2147538331,2185914404,2201519853,2196151387,2152066066,2738,-1,9,39894
1373218270,5804,64.3499984741211000,25.2877998352050780,36.2990989685058600,367.5685119628906000,-80.5939407348632800,25.2273406982421880,23.1316509246826170,63,116,88,84,58,10039,2148680685,2149620662,2149342902,2147557165,2191633856,2208359835,2201276754,2152693083,3096,-1,9,48735
1373218325,5807,62.3499984741210940,25.4174995422363280,36.3003997802734400,383.9921875000000000,-86.3480682373046900,25.4077701568603500,22.6320896148681640,61,117,87,85,60,10029,2148872640,2149828342,2149540196,2147582125,2196566921,2213992210,2205333558,2153204342,3577,-2,8,48288
1373218380,5804,60.7700004577636700,25.5060005187988280,36.2887001037597660,366.6979980468750000,-89.5726928710937500,25.5090007781982420,23.0544300079345700,61,119,126,83,59,10034,2149010587,2149956946,2149590089,2147578962,2200350171,2218675648,2208858715,2153616960,2527,-2,9,58978
1373218446,5804,59.5099983215332000,25.5767002105712900,36.2877998352050800,401.7402954101562500,-91.6448669433593800,25.5740890502929700,22.1256504058837900,62,122,88,83,58,10030,2149121810,2150066788,2149681133,2147584850,2202615433,2221033508,2210445787,2153818715,2705,-2,9,43050
1373218563,5803,57.3199996948242200,25.7171993255615230,36.2821998596191400,409.2522888183594000,-96.2236480712890600,25.7180500030517580,21.8921508789062500,60,116,88,85,59,10025,2149479158,2150414016,2149953901,2147608329,2212314733,2231881078,2217947483,2154736393,2929,-2,9,22726
1373218662,5807,55.5200004577636700,26.0333995819091800,36.2415008544921900,393.3403015136719000,-105.7696990966796900,26.0187206268310550,22.1780891418457030,60,116,89,86,60,10028,2149791286,2150700763,2150144841,2147618029,2221721289,2242460032,2225407606,2155703186,2255,-1,9,19156
1373218891,5801,53.8400001525878900,26.1345996856689450,36.2321014404296900,482.0874938964844000,-109.8984985351562500,26.1490001678466800,20.1375102996826170,60,118,86,84,62,10007,2150159369,2151064301,2150456429,2147658075,2230438473,2251195026,2231306779,2156592521,1625,-2,9,13819
1373218972,5807,51.9099998474121100,26.4904003143310550,36.1763992309570300,410.0333862304687500,-120.1772003173828100,26.4739608764648440,21.6097602844238280,59,118,89,84,56,10008,2150569261,2151428260,2150728649,2147695204,2240978276,2262305883,2238668214,2157604781,1517,-2,9,35467
1373219250,5807,49.9300003051757800,26.6807994842529300,36.1554985046386700,423.7854003906250000,-126.9803009033203100,26.6895503997802730,21.2116794586181640,58,118,88,84,59,10012,2151174153,2151969627,2151200630,2147798747,2255526308,2276451117,2247010605,2158693979,717,-1,9,3817
1373219343,5804,47.7299995422363300,26.7688007354736330,36.1431999206543000,432.8489990234375000,-129.8876037597656200,26.7817993164062500,20.9729309082031250,57,113,86,85,61,10009,2151686765,2152411611,2151478326,2147823707,2268562514,2289045266,2254316836,2159760438,610,-1,9,18915
1373219490,5805,45.3300018310546900,26.8512992858886720,36.1385002136230500,403.6084899902344000,-132.5142974853515600,26.8652191162109380,21.6291694641113280,56,115,89,84,55,10011,2152467574,2153072219,2151887954,2147866294,2290407844,2310662555,2267944073,2161634148,466,-1,8,8635
1373219535,5805,43.7000007629394500,26.8668994903564450,36.1385002136230500,403.0769042968750000,-132.9942932128906200,26.8804702758789060,21.6368408203125000,56,115,90,84,58,10016,2152914075,2153458852,2152163584,2147914368,2302631826,2322023369,2274698386,2162637184,552,-2,9,38337
1373219580,5807,41.7200012207031250,26.8820991516113280,36.1388015747070300,374.7182922363281000,-133.5289001464843800,26.8974609375000000,22.3487796783447270,55,114,89,82,57,10019,2153522020,2153979849,2152517778,2147970678,2320741056,2340232548,2286088704,2164591533,484,-1,9,52796
1373219625,5807,39.5499992370605500,26.9260997772216800,36.1411018371582000,376.0456848144531000,-134.9046936035156200,26.9411907196044920,22.2985801696777340,55,111,88,84,58,10020,2154089590,2154448713,2152796763,2147988324,2337078153,2356171337,2296112896,2166279606,312,-1,9,15930
1373219670,5807,37.4099998474121100,26.9722003936767580,36.1428985595703100,401.3369140625000000,-136.3627929687500000,26.9875507354736330,21.6422290802001950,54,113,88,83,60,10018,2154703853,2154956845,2153065563,2147973842,2354357202,2373119552,2306555904,2168211712,3479,-2,9,21096